Location: North Runcton
(52.7000°N, 0.4333°E)
Time: 21:33:54
(UTC+00:00)

Cosmos 405 Rocket - Pass Details

Date: 19 May 2025
Orbit: 413 x 447 km, 81.2° (Epoch: 18 June)

Event Time Altitude Azimuth Distance (km) Brightness Sun altitude
Rises 21:36:02 0° 356° (N) 2,467 7.3 -11.3°
Reaches altitude 10° 21:38:28 10° 13° (NNE) 1,583 5.8 -11.5°
Maximum altitude 21:41:13 22° 66° (ENE) 1,032 4.1 -11.8°
Enters shadow 21:43:14 14° 110° (ESE) 1,346 4.3 -11.9°
